Location: Newark
(51.5306°N, 0.2243°W)
Time: 14:15:10
(UTC+00:00)

Envisat - Pass Details

Date: 25 September 2019
Orbit: 764 x 766 km, 98.1° (Epoch: 20 October)

Event Time Altitude Azimuth Distance (km) Brightness Sun altitude
Rises 19:39:51 0° 219° (SW) 3,225 6.5 -17.1°
Reaches altitude 10° 19:43:22 10° 245° (WSW) 2,305 6.1 -17.6°
Maximum altitude 19:45:55 14° 275° (W) 2,055 6.3 -18.0°
Drops below altitude 10° 19:48:29 10° 305° (NW) 2,313 6.7 -18.3°
Sets 19:52:02 0° 331° (NNW) 3,246 7.1 -18.9°
